Regional Weather Roundup
Issued by NWS Columbia, SC

Home | Current Version | Previous Version | Text Only | Print | Product List | Glossary On
Versions: 1 2 3 4 5 6 7 8 9 10 11 12 13 14 15 16 17 18 19 20 21 22 23 24 25 26 27 28 29 30 31 32 33 34 35 36 37 38 39 40 41 42 43 44 45 46 47 48 49 50
000
ASUS42 KCAE 280210
RWRCAE
REGIONAL WEATHER ROUNDUP
NATIONAL WEATHER SERVICE COLUMBIA SC
1000 PM EDT FRI MAY 27 2016

NOTE: "FAIR" INDICATES FEW OR NO CLOUDS BELOW 12,000 FEET WITH NO
SIGNIFICANT WEATHER AND/OR OBSTRUCTIONS TO VISIBILITY.

NOT ALL STATIONS ARE QUALITY CONTROLLED BY THE NATIONAL
WEATHER SERVICE. USE DATA WITH CAUTION...ESPECIALLY
DEWPOINT OBSERVATIONS.

SCZ001>056-GAZ040-063>065-077-280300-
...UPSTATE SOUTH CAROLINA...

CITY           SKY/WX    TMP DP  RH WIND       PRES   REMARKS
ANDERSON       CLEAR     74  63  68 NE3       30.08R
LIBERTY        CLEAR     68  64  86 SE3       30.09S
SPARTANBURG    CLEAR     70  63  78 CALM      30.09R
CLEMSON        CLEAR     76  63  64 CALM      30.10R
GREENVILLE     CLEAR     77  61  57 E3        30.11R
GREENWOOD      CLEAR     75  62  64 SE5       30.10R
GREER          CLEAR     72  63  73 CALM      30.10R
ROCK HILL      CLOUDY    77  63  61 CALM      30.11R
CHESTER        CLEAR     72  63  73 CALM      30.11R
LAURENS        CLEAR     72  64  78 SE5       30.09R


...CENTRAL SOUTH CAROLINA...

CITY           SKY/WX    TMP DP  RH WIND       PRES   REMARKS
COLUMBIA APT   CLEAR     76  55  48 E3        30.08R
COLUMBIA OWENS CLEAR     78  52  40 CALM      30.10R
MCENTIRE ANGB  CLEAR     67  56  66 E6        30.10R
ORANGEBURG     CLEAR     74  60  61 CALM      30.10R
SUMTER SHAW    CLEAR     73  52  48 SE6       30.08R
NEWBERRY       CLEAR     73  63  68 SE3       30.12R
AIKEN          FAIR      73  57  56 SE6       30.12R
BARNWELL       FAIR      77  64  65 CALM      30.10R
MANNING        FAIR      70  59  68 CALM      30.10R
LANCASTER      PTCLDY    72  66  83 E5        30.11R
WINNSBORO      CLEAR     72  61  68 SE3       30.11


...EASTERN AND COASTAL SOUTH CAROLINA...

CITY           SKY/WX    TMP DP  RH WIND       PRES   REMARKS
MYRTLE BEACH   CLEAR     75  61  60 E9        30.12R
N MYRTLE BCH   PTCLDY    75  66  73 E7        30.11R
CONWAY         FAIR      64  61  88 CALM      30.12R
MARION         FAIR      68  59  73 CALM      30.11R
HARTSVILLE     FAIR      72  54  53 SE5       30.11R
FLORENCE       CLEAR     71  58  63 SE6       30.11R
DARLINGTON     CLEAR     72  60  66 SE3       30.12R
CHARLESTON APT PTCLDY    74  63  68 E9        30.09R
MOUNT PLEASANT CLOUDY    73  66  78 CALM      30.10R
WALTERBORO     CLEAR     72  63  73 CALM      30.11R
BEAUFORT       CLEAR     74  66  76 E5        30.09R


...EASTERN GEORGIA...

CITY           SKY/WX    TMP DP  RH WIND       PRES   REMARKS
AUGUSTA BUSH F CLEAR     72  60  66 SE8       30.07R
AUGUSTA DANIEL CLEAR     78  59  51 SE5       30.09R
THOMSON        CLEAR     75  64  67 CALM      30.11S
WASHINGTON     FAIR      77  66  69 CALM      30.07R
CLAXTON        FAIR      70  65  85 E3        30.08S
SYLVANIA       CLEAR     74  64  71 CALM      30.10R
STATESBORO     CLEAR     74  66  76 SE3       30.08S
SAVANNAH       CLEAR     73  64  73 NE6       30.09R


...SOUTHERN NORTH CAROLINA...

CITY           SKY/WX    TMP DP  RH WIND       PRES   REMARKS
CHARLOTTE      MOCLDY    77  62  59 S6        30.11R
WADESBORO      CLEAR     75  58  54 SE8       30.11R
ROCKINGHAM     CLEAR     75  61  61 SE6       30.12R
RUTHERFORDTON  PTCLDY    74  63  69 CALM      30.12R
ASHEVILLE      MOCLDY    69  60  73 CALM      30.16R

$$



USA.gov is the U.S. government's official web portal to all federal, state and local government web resources and services.